"Pseudo-MPEC" for ZTF02vB

Created 2019 Apr 22 11:07:09 UT using Find_Orb

Click here for an explanation of pseudo-MPECs

 
 Astrometry: 
     ZTF02vB  C2019 04 08.26851813 27 12.09 +39 04 28.8    ~48Km 19.26RUNEOCPI41
     ZTF02vB  C2019 04 08.26886613 27 13.12 +39 04 22.4    ~48Km 19.26RUNEOCPI41
     ZTF02vB  C2019 04 08.30752213 29 08.94 +38 51 52.8    ~48Km 20.02gUNEOCPI41
     ZTF02vB  C2019 04 08.30786913 29 09.78 +38 51 47.3    ~48Km 20.02gUNEOCPI41
     ZTF02vB  C2019 04 08.32841013 30 10.94 +38 44 52.4    ~48MI 20.44gUNEOCPI41
     ZTF02vB  C2019 04 08.32875613 30 11.91 +38 44 46.8    ~48MI 20.44gUNEOCPI41

Station data:
(I41) Palomar Mountain--ZTF  (N33.357340 W116.859780)  US/California. 1.2-m
   f/2.44 Oschin Schmidt + CCD.

Orbital elements:  ZTF02vB
   Perihelion 2019 Apr 3.570889 +/- 2.8 TT = 13:42:04 (JD 2458577.070889)
Epoch 2019 Apr  8.0 TT = JDT 2458581.5   Earth MOID: 0.0095   Ma: 0.0049
M   2.66636338 +/- 1.7              (J2000 ecliptic)          AutoNEOCP
n   0.60200866 +/- 0.0342           Peri.  150.45436 +/- 14
a   1.38910226 +/- 0.0526           Node    42.13775 +/- 11
e   0.2749938 +/- 0.0268            Incl.    0.94104 +/- 0.59
P   1.64/597.99d           H 28.2   G  0.15   U 10.5  
q 1.00710764 +/- 0.00117    Q 1.77109689 +/- 0.106
From 6 observations 2019 Apr. 8 (86.7 min); mean residual 0".63
Residuals in arcseconds: 
190408 I41  .11+  .09-    190408 I41  1.1+  .69-    190408 I41  .34+  .74-    
190408 I41  .11-  .09+    190408 I41  1.1-  .71+    190408 I41  .32-  .72+    

Ephemerides (geocentric):
Date (UTC) HH   RA              Dec         delta   r     elong  mag " sig PA
---- -- -- --  -------------   -----------  ------ ------ -----  --- ---- ---
2019 04 22 11  18 02 28.123   -19 09 33.32  .02959 1.0207 121.1 22.7 2040 152
2019 04 22 12  18 02 37.521   -19 11 55.17  .02968 1.0208 121.1 22.7 2041 152
2019 04 22 13  18 02 46.861   -19 14 16.19  .02976 1.0208 121.1 22.7 2041 152
2019 04 22 14  18 02 56.144   -19 16 36.39  .02984 1.0209 121.1 22.7 2042 152
2019 04 22 15  18 03 05.369   -19 18 55.78  .02993 1.0209 121.1 22.7 2043 152
2019 04 22 16  18 03 14.538   -19 21 14.36  .03001 1.0210 121.1 22.7 2043 152
2019 04 22 17  18 03 23.651   -19 23 32.15  .03010 1.0211 121.1 22.7 2044 152
2019 04 22 18  18 03 32.708   -19 25 49.15  .03018 1.0211 121.1 22.7 2045 152
2019 04 22 19  18 03 41.709   -19 28 05.36  .03027 1.0212 121.1 22.7 2045 152
2019 04 22 20  18 03 50.655   -19 30 20.79  .03035 1.0212 121.2 22.7 2046 152
2019 04 22 21  18 03 59.546   -19 32 35.46  .03043 1.0213 121.2 22.7 2046 152
2019 04 22 22  18 04 08.384   -19 34 49.35  .03052 1.0214 121.2 22.7 2047 152
2019 04 22 23  18 04 17.167   -19 37 02.49  .03060 1.0214 121.2 22.7 2048 152
2019 04 23 00  18 04 25.896   -19 39 14.88  .03069 1.0215 121.2 22.8 2048 152
2019 04 23 01  18 04 34.572   -19 41 26.52  .03077 1.0215 121.2 22.8 2049 152
2019 04 23 02  18 04 43.196   -19 43 37.43  .03086 1.0216 121.2 22.8 2049 152
2019 04 23 03  18 04 51.767   -19 45 47.59  .03094 1.0217 121.2 22.8 2050 152
2019 04 23 04  18 05 00.285   -19 47 57.03  .03102 1.0217 121.2 22.8 2050 152
2019 04 23 05  18 05 08.752   -19 50 05.75  .03111 1.0218 121.2 22.8 2051 152
2019 04 23 06  18 05 17.167   -19 52 13.76  .03119 1.0218 121.2 22.8 2052 152
2019 04 23 07  18 05 25.531   -19 54 21.05  .03128 1.0219 121.2 22.8 2052 152
2019 04 23 08  18 05 33.845   -19 56 27.64  .03136 1.0220 121.3 22.8 2053 152
2019 04 23 09  18 05 42.107   -19 58 33.53  .03145 1.0220 121.3 22.8 2053 152
2019 04 23 10  18 05 50.320   -20 00 38.73  .03153 1.0221 121.3 22.8 2054 152
2019 04 23 11  18 05 58.483   -20 02 43.25  .03162 1.0222 121.3 22.8 2054 152
2019 04 23 12  18 06 06.596   -20 04 47.08  .03170 1.0222 121.3 22.8 2055 152
2019 04 23 13  18 06 14.660   -20 06 50.23  .03178 1.0223 121.3 22.8 2055 151
2019 04 23 14  18 06 22.676   -20 08 52.72  .03187 1.0223 121.3 22.8 2055 151
2019 04 23 15  18 06 30.642   -20 10 54.54  .03195 1.0224 121.3 22.8 2056 151
2019 04 23 16  18 06 38.561   -20 12 55.70  .03204 1.0225 121.3 22.8 2056 151
2019 04 23 17  18 06 46.431   -20 14 56.21  .03212 1.0225 121.4 22.8 2057 151
2019 04 23 18  18 06 54.254   -20 16 56.06  .03221 1.0226 121.4 22.9 2057 151
2019 04 23 19  18 07 02.030   -20 18 55.28  .03229 1.0227 121.4 22.9 2058 151
2019 04 23 20  18 07 09.759   -20 20 53.85  .03238 1.0227 121.4 22.9 2058 151
2019 04 23 21  18 07 17.441   -20 22 51.79  .03246 1.0228 121.4 22.9 2059 151
2019 04 23 22  18 07 25.076   -20 24 49.10  .03255 1.0228 121.4 22.9 2059 151
2019 04 23 23  18 07 32.666   -20 26 45.79  .03263 1.0229 121.4 22.9 2059 151
2019 04 24 00  18 07 40.209   -20 28 41.86  .03272 1.0230 121.4 22.9 2060 151
2019 04 24 01  18 07 47.708   -20 30 37.32  .03280 1.0230 121.4 22.9 2060 151
2019 04 24 02  18 07 55.160   -20 32 32.16  .03289 1.0231 121.5 22.9 2061 151
2019 04 24 03  18 08 02.568   -20 34 26.41  .03297 1.0232 121.5 22.9 2061 151
2019 04 24 04  18 08 09.931   -20 36 20.05  .03305 1.0232 121.5 22.9 2061 151
2019 04 24 05  18 08 17.250   -20 38 13.10  .03314 1.0233 121.5 22.9 2062 151
2019 04 24 06  18 08 24.525   -20 40 05.55  .03322 1.0234 121.5 22.9 2062 151
2019 04 24 07  18 08 31.755   -20 41 57.43  .03331 1.0234 121.5 22.9 2062 151
2019 04 24 08  18 08 38.943   -20 43 48.72  .03339 1.0235 121.5 22.9 2063 151
2019 04 24 09  18 08 46.086   -20 45 39.43  .03348 1.0236 121.6 22.9 2063 151
2019 04 24 10  18 08 53.187   -20 47 29.57  .03356 1.0236 121.6 22.9 2063 151